Regional Weather Roundup
Issued by NWS

Home | Current Version | Previous Version | Graphics & Text | Print | Product List | Glossary On
Versions: 1 2 3 4 5 6 7 8 9 10 11 12 13 14 15 16 17 18 19 20 21 22 23 24 25 26 27 28 29 30 31 32 33 34 35 36 37 38 39 40 41 42 43 44 45 46 47 48 49 50
000
ASUS43 KOAX 271602
RWRNE

WEATHER ROUNDUP FOR NEBRASKA
NATIONAL WEATHER SERVICE OMAHA NE
1000 AM CST MON FEB 27 2017

NOTES: SATELLITE DATA IS BEING USED TO AUGMENT CLOUD COVER ABOVE
       12000 FEET.
       "FAIR" INDICATES FEW OR NO CLOUDS BELOW 12,000 FEET WITH NO
       SIGNIFICANT WEATHER AND/OR OBSTRUCTIONS TO VISIBILITY.

  * THESE STATIONS DO NOT REPORT WEATHER SUCH AS RAIN...SNOW OR FOG.

NEZ001>004-019>022-054>056-271700-
NEBRASKA PANHANDLE

CITY           SKY/WX    TMP DP  RH WIND       PRES   REMARKS
SCOTTSBLUFF    CLOUDY    18  10  71 SE8       29.68F WCI   8
ALLIANCE       CLOUDY    15   9  76 S7        29.68S WCI   5
CHADRON        CLOUDY    28  17  63 S12       29.66F WCI  18
KIMBALL        SUNNY     30  16  56 SW7       29.66S WCI  23
SIDNEY         CLOUDY    29  17  61 SW13      29.69F WCI  19
$$

NEZ057>060-069>072-079>082-271700-
SOUTHWEST NEBRASKA

CITY           SKY/WX    TMP DP  RH WIND       PRES   REMARKS
NORTH PLATTE   CLOUDY    31  22  69 S9        29.80F WCI  23
IMPERIAL       CLOUDY    32  23  69 S14       29.76F WCI  22
LEXINGTON      CLOUDY    34  22  61 S7        29.86F WCI  27
MCCOOK         CLOUDY    29  18  63 E7        29.83F WCI  22
OGALLALA       CLOUDY    29  21  71 SE5       29.75F WCI  24
$$

NEZ005>010-023>029-035>040-094-271700-
NORTH CENTRAL NEBRASKA

CITY           SKY/WX    TMP DP  RH WIND       PRES   REMARKS
VALENTINE      CLOUDY    34  20  56 SW24      29.73S WCI  21
AINSWORTH      SUNNY     31  21  64 S21       29.76S WCI  19
BROKEN BOW     CLOUDY    32  19  58 S12       29.83F WCI  23
O`NEILL        SUNNY     33  17  51 S16G22    29.83F WCI  23
ORD            CLOUDY    34  17  50 S12       29.86F WCI  25
THEDFORD       CLOUDY    33  22  63 S17       29.77F WCI  22
$$

NEZ041-046>049-061>064-073>077-083>087-271700-
SOUTH CENTRAL NEBRASKA

CITY           SKY/WX    TMP DP  RH WIND       PRES   REMARKS
GRAND ISLAND   SUNNY     40  27  59 S13       29.91S WCI  32
AURORA         SUNNY     40  28  60 S14       29.91F WCI  33
HASTINGS       SUNNY     38  26  62 S8        29.91S WCI  32
HEBRON         SUNNY     42  30  62 S9        29.94R
HOLDREGE       CLOUDY    39  24  56 S13       29.86F WCI  31
KEARNEY *      CLOUDY    39  27  60 S12       29.88F WCI  32
YORK           PTSUNNY   37  28  70 S9        29.93S WCI  31
$$

NEZ011>018-030>034-042>045-271700-
NORTHEAST NEBRASKA

CITY           SKY/WX    TMP DP  RH WIND       PRES   REMARKS
NORFOLK        SUNNY     34  21  59 S10       29.91S WCI  26
ALBION         MOSUNNY   36  23  60 S12       29.91S WCI  28
BLAIR          SUNNY     36  28  73 SW7       29.98R WCI  31
FREMONT        SUNNY     40  27  59 S6        29.97F
TEKAMAH        SUNNY     31  26  82 SE6       29.98F WCI  25
WAYNE          SUNNY     31  23  73 S5        29.93S WCI  26
$$

NEZ050>053-065>068-078-088>093-271700-
SOUTHEAST NEBRASKA

CITY           SKY/WX    TMP DP  RH WIND       PRES   REMARKS
LINCOLN        SUNNY     36  28  73 E5        29.97F WCI  32
OMAHA EPPLEY   MOSUNNY   37  26  64 S9        30.00R WCI  30
BEATRICE       MOSUNNY   42  31  64 SE12      29.96S
FALLS CITY     MOSUNNY   44  34  67 SE10      30.00S
NEBRASKA CITY  SUNNY     40  29  64 S8        29.99S
PLATTSMOUTH    SUNNY     38  26  61 S10       30.00R WCI  32
$$

NEZ044-045-051>053-067-271700-
OMAHA AREA

CITY           SKY/WX    TMP DP  RH WIND       PRES   REMARKS
OMAHA EPPLEY   MOSUNNY   37  26  64 S9        30.00R WCI  30
BLAIR          SUNNY     36  28  73 SW7       29.98R WCI  31
FREMONT        SUNNY     40  27  59 S6        29.97F
MILLARD        SUNNY     39  29  67 S3        30.00R
OFFUTT AFB     SUNNY     38  29  71 S7        30.00R WCI  32
PLATTSMOUTH    SUNNY     38  26  61 S10       30.00R WCI  32
WAHOO          FAIR      35  28  74 S5        29.97S WCI  31
$$




USA.gov is the U.S. government's official web portal to all federal, state and local government web resources and services.